Probability
0 0 0 1 3 3 3 3 3 3 3 3 3 3 3 3 3 3 3 3 3 3 3 3 3 3 3 4 6 6 7 8 8 7 6 4 2 3 3 2 1 0 0
0 0 1 2 3 3 3 3 3 3 3 3 3 3 3 3 3 3 3 3 3 3 3 3 3 3 3 4 6 7 8 9 9 7 6 4 2 2 2 1 0 0 0
0 1 2 3 2 2 2 3 4 4 3 3 3 3 3 2 2 2 3 3 3 3 3 3 3 3 4 5 6 7 8 9 9 8 5 2 1 1 1 1 0 0 0
1 2 3 3 2 1 1 3 4 5 4 3 3 2 1 1 1 1 1 2 2 3 3 3 3 4 5 6 6 7 8 9 9 8 4 1 0 0 0 0 0 0 0
2 3 3 3 1 0 1 2 3 4 4 3 2 1 0 0 0 0 0 1 1 2 3 3 3 3 4 6 6 6 7 9 8 6 3 1 1 1 0 0 0 0 0
1 2 2 2 1 0 0 1 1 2 2 2 1 0 0 0 0 0 0 0 1 2 3 3 3 3 4 6 6 6 7 7 6 4 3 3 2 1 0 0 0 0 0
0 1 1 1 0 0 0 1 1 1 1 1 0 0 0 0 0 0 0 0 1 2 3 3 3 4 6 7 6 5 5 5 2 2 3 3 2 1 0 0 0 0 0
0 0 0 1 1 0 1 1 1 0 0 0 0 0 0 0 0 0 0 0 1 3 3 3 3 5 7 8 6 4 3 2 1 1 2 3 2 1 0 0 0 0 0
0 0 0 0 1 1 1 1 0 0 0 0 0 0 0 0 0 0 0 1 2 3 3 3 3 5 7 7 5 3 2 1 1 1 1 2 2 1 0 0 0 0 0
0 0 0 0 0 0 0 0 0 0 0 0 0 0 0 0 1 1 1 1 2 3 3 3 4 4 4 4 3 3 2 2 1 0 0 1 2 2 1 0 0 0 0
0 0 0 0 0 0 0 0 0 0 0 0 0 0 0 0 1 1 1 1 3 3 3 3 3 3 2 1 2 2 2 1 1 0 0 1 2 2 1 0 0 0 0
0 0 0 0 0 0 0 0 0 0 0 0 0 0 0 1 2 1 1 1 2 2 2 2 2 1 1 1 1 1 0 1 1 1 0 1 2 2 1 0 0 0 0
0 0 0 0 1 1 0 1 1 0 0 0 0 0 1 2 2 1 1 1 1 1 1 1 0 0 0 0 0 0 0 1 2 1 1 1 1 1 0 0 0 0 0
0 0 0 1 2 2 1 1 2 1 1 1 1 1 1 2 2 2 2 1 0 0 0 0 0 0 0 0 0 0 1 2 2 1 1 2 1 0 0 0 0 0 0
1 0 0 1 3 3 1 1 2 3 2 3 2 1 0 1 1 2 3 2 1 0 0 0 0 0 0 0 0 0 1 2 1 0 1 1 1 0 0 0 0 0 1
2 1 1 2 3 3 2 1 2 2 3 3 2 1 0 0 1 3 3 3 2 1 0 0 0 1 2 1 0 1 2 2 1 0 0 0 0 0 0 0 0 1 2
2 2 2 3 3 3 2 1 1 1 1 2 2 1 0 1 2 3 3 3 3 2 1 1 1 1 3 2 0 1 2 2 1 0 0 1 1 0 0 0 1 1 2
4 4 4 4 4 4 2 1 1 0 0 1 2 2 1 1 2 3 3 3 2 2 1 1 1 2 3 2 1 1 1 1 1 1 1 2 2 1 1 1 2 2 1
6 7 9 7 6 5 4 3 2 1 1 0 1 1 1 0 1 1 2 1 1 1 1 1 1 2 2 1 1 0 0 0 1 1 2 3 3 3 2 2 2 2 1
8 10 13 12 9 7 6 5 4 4 3 2 1 1 1 1 1 0 0 0 1 2 1 0 0 1 1 1 1 0 0 0 1 2 3 3 3 3 3 3 3 3 2
8 11 14 14 12 10 8 8 8 7 6 4 3 3 3 3 2 1 0 0 2 2 1 0 0 0 0 0 1 1 1 1 2 2 3 3 4 4 3 3 4 6 6
9 10 12 13 13 13 11 10 10 9 7 5 6 7 7 6 4 2 0 0 1 1 1 1 2 2 1 1 2 2 2 2 2 2 2 3 4 5 4 3 5 6 7
9 10 10 11 13 14 13 10 10 10 8 6 7 8 9 9 7 4 1 0 0 1 1 2 3 4 3 4 5 5 3 3 2 2 3 3 3 4 3 3 3 4 5
9 9 9 10 11 13 12 10 10 11 10 8 8 8 9 9 9 6 2 1 1 1 2 3 4 5 5 6 7 7 6 5 4 4 4 3 3 3 3 3 4 5 5
9 9 9 9 10 11 11 11 11 13 13 12 10 9 9 10 9 8 5 4 4 4 4 4 4 5 6 7 7 8 7 7 7 6 5 4 4 4 3 4 6 8 9
10 9 8 9 10 11 12 12 13 14 16 16 14 12 11 10 10 9 7 6 5 5 5 4 4 4 6 7 7 7 7 7 8 7 4 4 4 5 5 5 6 9 12
Wind_Speed
5 7 9 6 7 9 9 10 11 11 11 11 11 11 12 12 12 12 12 13 13 12 13 13 14 14 15 15 16 16 15 15 15 15 16 15 15 15 15 15 14 13 15
5 8 10 7 8 9 9 10 11 11 11 11 10 11 11 11 11 11 12 12 12 12 12 12 13 13 14 14 15 14 14 14 15 15 16 15 15 15 14 12 10 12 15
6 8 10 8 8 8 9 10 10 11 11 10 10 10 10 10 11 11 12 12 12 12 12 12 12 12 13 13 14 14 14 13 14 14 13 12 13 13 13 13 14 15 14
7 8 9 9 9 9 9 9 9 10 10 10 10 10 10 10 10 10 11 11 12 11 11 11 12 11 12 13 13 13 13 13 12 11 8 9 11 13 13 13 14 14 13
8 8 11 8 9 9 8 9 9 9 9 10 10 10 10 10 10 10 10 11 11 11 11 11 11 11 11 12 13 12 12 12 10 9 8 8 9 12 12 13 13 13 13
8 8 12 8 8 8 8 8 8 9 9 9 10 10 10 10 10 10 9 10 10 10 10 10 10 10 11 12 12 12 11 10 10 8 8 8 9 11 12 12 12 12 12
8 8 11 9 8 7 7 8 8 8 8 9 9 9 9 9 9 9 9 9 9 9 10 9 10 10 10 11 11 10 9 8 6 7 7 7 9 11 11 11 11 11 11
7 8 10 10 7 7 7 7 7 7 8 8 8 8 8 8 9 9 8 8 8 9 9 9 10 9 9 9 9 9 8 7 6 7 6 7 10 10 10 10 10 10 10
7 7 7 7 8 7 6 6 6 7 7 7 8 8 8 8 8 8 8 8 8 8 9 9 9 9 8 8 7 7 6 5 4 5 6 6 11 10 10 10 10 10 10
5 6 7 6 5 5 7 7 6 7 7 7 8 8 8 8 8 7 7 7 7 7 9 9 8 8 7 7 6 6 6 6 5 6 5 8 11 10 10 10 10 10 10
5 4 5 6 5 4 5 7 7 9 8 7 8 8 6 5 6 6 7 6 6 7 8 8 7 7 7 7 7 6 6 3 4 3 3 10 10 10 10 10 10 9 10
6 5 4 4 4 4 3 5 4 5 6 4 4 5 4 3 3 4 8 6 6 7 8 7 6 7 7 6 8 7 3 3 3 3 5 10 9 10 10 10 10 9 9
6 5 5 4 4 3 3 3 3 3 3 4 4 3 3 3 3 3 4 5 6 7 6 7 7 4 3 2 2 3 2 2 1 2 6 9 9 9 10 10 11 10 10
5 5 5 5 4 3 2 3 3 3 2 3 4 3 3 2 2 3 2 3 3 3 3 2 2 3 2 2 2 2 2 1 1 1 4 8 7 8 9 9 10 10 10
4 5 5 4 4 3 2 1 3 3 2 3 3 3 2 2 2 3 2 1 2 2 3 3 2 3 3 3 3 3 2 1 1 2 3 7 7 7 8 8 8 10 10
4 4 4 4 4 3 3 2 2 3 2 2 2 3 1 2 2 2 3 2 2 2 2 2 2 2 2 2 2 2 2 2 2 2 2 5 7 7 8 8 9 9 10
5 4 4 4 4 4 3 2 2 2 2 2 2 2 2 2 2 1 2 2 1 2 2 2 3 2 2 2 2 2 2 2 2 2 2 2 4 8 9 9 9 9 9
4 4 4 4 5 4 3 2 1 1 2 1 1 2 2 2 2 1 1 1 1 1 2 2 2 2 1 1 1 2 2 2 2 3 3 3 3 3 7 9 8 8 9
5 5 5 4 4 3 3 2 2 1 1 1 1 1 2 2 2 1 0 1 2 1 2 2 2 2 2 2 2 2 2 2 2 3 2 3 2 3 3 7 9 7 8
6 5 5 5 4 4 3 3 2 1 1 1 1 1 1 1 2 1 1 1 1 1 1 1 1 2 2 2 2 1 2 2 2 2 3 2 2 3 3 3 5 7 8
6 6 5 5 5 4 3 3 2 2 2 2 1 1 1 1 1 1 1 1 1 1 1 2 2 3 2 2 2 2 3 3 2 2 2 2 2 2 2 2 2 2 4
7 6 6 6 5 5 3 2 1 1 1 1 1 2 1 1 2 2 1 1 1 1 1 1 2 2 2 2 3 3 3 3 3 2 2 3 2 2 2 3 2 2 3
8 8 6 5 5 4 4 3 2 2 2 2 2 2 2 2 2 1 1 1 1 2 1 2 2 3 3 3 3 3 3 1 1 3 3 2 2 2 2 2 3 3 3
9 8 7 6 6 5 5 3 3 2 1 1 1 1 2 2 2 2 2 2 2 2 1 3 2 3 3 3 2 3 3 3 2 1 2 2 2 2 3 2 2 3 3
9 8 8 7 6 5 5 4 4 3 2 1 1 2 2 2 2 2 2 2 3 2 2 2 1 3 3 3 2 2 3 3 4 3 2 1 2 2 2 2 2 2 2
8 8 7 7 6 5 5 4 4 3 2 2 2 2 2 2 2 2 2 2 2 2 2 2 2 3 2 3 3 3 3 2 3 3 3 2 2 1 1 1 2 1 1
Wind_Direction
78 85 89 88 91 92 93 97 102 102 102 102 105 105 106 106 107 108 110 111 112 115 118 119 118 119 119 121 123 124 125 125 124 124 123 122 121 121 122 126 130 118 119
86 94 98 92 96 96 95 96 100 104 103 104 106 106 106 106 108 111 113 114 115 116 118 119 119 119 120 123 125 127 128 127 128 128 129 127 125 124 125 124 112 114 125
98 103 111 94 97 96 94 95 99 103 104 104 106 108 107 106 105 107 110 113 114 114 115 118 120 121 124 125 127 128 128 128 130 135 145 136 129 128 127 123 119 126 129
99 102 96 99 97 96 92 94 100 103 103 101 101 106 106 106 105 105 107 110 112 113 117 120 120 122 125 126 127 129 128 129 136 155 153 133 132 128 131 131 132 133 135
97 98 99 103 97 98 95 94 100 105 104 102 102 103 103 105 106 106 105 106 107 111 115 116 118 122 126 128 128 129 130 134 149 172 130 127 124 132 138 139 138 138 139
106 105 102 105 102 102 101 100 101 107 108 105 103 102 102 103 105 106 106 107 108 110 111 112 114 117 125 128 129 131 136 148 174 140 130 136 130 138 142 143 142 142 143
100 96 100 103 108 107 108 107 106 109 109 108 106 106 106 107 108 108 109 110 112 112 113 113 111 114 120 127 132 137 145 170 173 134 136 136 125 139 147 147 147 147 146
98 98 103 110 103 100 105 109 112 112 111 111 110 109 109 108 107 107 107 111 114 116 116 114 113 114 118 125 134 144 157 192 160 141 141 133 128 148 153 151 153 154 154
99 103 104 117 117 117 105 99 109 115 116 115 113 111 109 109 107 107 107 110 115 120 122 122 120 117 117 123 132 143 163 201 182 146 151 136 139 158 162 163 162 162 162
99 106 115 109 105 125 121 106 106 117 117 118 114 114 117 123 121 122 126 114 118 125 127 127 127 125 128 130 133 137 162 198 181 157 155 135 149 167 176 175 172 171 169
110 104 103 110 115 113 101 111 127 134 133 146 134 137 159 141 132 142 103 116 128 132 132 131 136 141 151 149 142 150 183 198 157 157 142 129 158 175 183 181 180 180 178
120 115 108 108 117 108 91 102 112 125 130 132 120 137 134 121 114 108 117 122 131 139 143 140 151 168 191 162 154 181 196 184 172 166 135 142 171 184 190 188 187 189 188
119 115 119 111 100 98 106 97 94 103 115 120 116 122 120 133 135 134 135 142 146 162 156 151 177 180 166 143 168 167 157 196 177 168 137 153 181 194 196 196 195 195 196
120 119 113 114 113 94 75 98 116 113 117 112 121 136 130 125 128 109 125 130 144 142 137 153 155 149 144 164 172 157 173 202 191 163 127 150 179 195 198 197 199 200 201
131 126 116 121 119 119 117 104 105 108 111 115 121 116 128 139 132 126 118 130 137 131 152 163 158 149 169 178 178 176 202 203 217 196 144 154 175 190 198 196 198 205 208
138 132 130 144 140 140 142 126 105 112 120 116 122 114 129 122 125 146 148 154 149 164 151 170 168 181 196 168 182 190 220 210 187 213 199 164 179 193 199 205 206 208 213
147 147 152 159 151 155 154 155 137 129 126 111 116 118 135 131 133 173 148 175 155 164 170 197 193 195 201 187 190 206 216 227 204 217 232 221 188 189 198 208 211 212 217
153 153 169 168 157 164 164 182 155 133 121 129 141 133 139 131 163 208 174 153 177 197 196 194 220 207 196 211 203 235 221 208 215 219 228 224 227 208 191 198 207 213 221
164 165 170 171 170 175 171 179 179 148 130 148 141 131 141 160 174 207 155 104 222 215 219 234 182 231 214 229 217 209 219 210 212 216 226 231 225 226 215 180 193 205 218
168 170 171 176 178 187 181 176 180 165 176 164 154 132 158 174 177 220 175 177 234 203 220 235 229 233 249 250 257 244 237 224 225 217 221 212 213 224 218 216 200 194 204
171 173 177 181 172 188 189 197 183 173 175 171 171 137 176 202 180 214 224 155 248 221 249 239 235 212 225 234 236 229 218 210 213 212 219 225 203 209 217 215 234 235 197
177 179 182 182 178 190 178 195 195 187 189 155 145 133 191 199 217 199 209 232 218 230 242 253 246 258 241 220 250 254 230 198 200 202 204 211 220 207 216 213 213 212 249
182 184 184 182 180 186 185 191 182 180 201 177 176 176 197 206 216 251 236 262 250 242 225 243 231 235 247 236 243 266 275 252 212 176 195 200 214 226 222 208 209 210 226
185 181 180 181 182 183 196 203 205 208 209 178 210 157 188 209 226 229 237 240 256 260 236 240 214 242 240 241 227 246 273 312 282 232 187 187 201 228 247 248 232 205 223
185 180 177 178 181 184 196 199 216 224 213 202 205 165 222 207 226 231 234 240 243 254 256 263 240 254 250 258 252 238 241 241 252 262 256 244 233 227 227 233 244 239 237
181 179 174 174 180 186 195 199 216 226 227 231 232 218 219 204 211 212 230 239 246 259 254 251 248 233 261 269 270 262 255 253 252 253 255 247 244 248 234 227 235 234 237